#timestamp,LO_Frequency,Hit,StdDev 
1662616815.7,286047002.5,N
1662616835.6,286047001.9,N
1662616855.4,286047001.5,N
1662616875.2,286047002.2,N
1662616895.1,286047002.4,N
1662616896.0,286047002.4,N
1662616915.8,286047002.6,N
1662616935.7,286047002.5,N
1662616955.5,286047002.7,N
1662616975.3,286047002.8,Y
1662616995.2,286046998.7,P
1662617015.0,286046998.4,N
1662617015.9,286046998.4,N
1662617035.7,286046999.7,N
1662617055.6,286047000.0,N
1662617075.4,286047000.7,N
1662617095.3,286047000.4,N
1662617115.1,286046998.5,N
1662617116.0,286046998.5,N
1662617135.8,286046998.4,N
1662617155.7,286046998.6,N
1662617175.5,286046999.1,N
1662617195.4,286046997.0,N
1662617215.2,286046995.0,Y
1662617235.0,286046996.8,P
1662617235.9,286046996.8,N
1662617255.8,286046998.9,N
1662617275.6,286047000.4,N
1662617295.4,286046999.8,N
1662617315.3,286047002.6,N
1662617335.1,286047002.6,N
1662617355.9,286047002.6,N
1662617375.7,286047001.5,N
1662617395.5,286047002.6,N
1662617415.4,286047001.6,N
1662617435.2,286046999.8,N
1662617455.0,286047001.4,N
1662617455.9,286047001.4,N
1662617475.8,286047001.7,N
1662617495.6,286047002.1,N
1662617515.5,286047002.6,N
1662617535.3,286047000.0,N
1662617555.1,286047000.5,N
1662617575.9,286047000.4,N
1662617595.7,286047000.5,N
1662617615.6,286047001.1,N
1662617635.4,286047001.2,N
1662617655.2,286046999.9,N
1662617675.1,286046999.7,N
1662617676.0,286046999.7,N
1662617695.8,286047002.8,N
1662617715.6,286047002.7,N
1662617735.5,286047002.0,N
1662617755.3,286047001.7,N
1662617775.2,286047004.1,N
1662617795.9,286047001.3,N
1662617815.7,286047003.7,Y
1662617835.6,286047002.0,P
1662617855.4,286047002.5,P
1662617875.2,286047002.0,P
1662617895.1,286047001.9,Y
1662617896.0,286047001.9,P
1662617915.8,286046998.4,P
1662617935.7,286046999.6,N
1662617955.5,286046999.1,N
1662617975.3,286046999.6,N
1662617995.2,286046998.5,N
1662618015.0,286047001.0,N
1662618015.9,286047001.0,N
1662618035.7,286046998.8,N
1662618055.6,286046996.5,N
1662618075.4,286046998.3,N
1662618095.3,286046999.0,N
1662618115.1,286046999.4,N
1662618116.0,286046999.4,N
1662618135.8,286046999.2,N
1662618155.7,286046996.6,N
1662618175.5,286046996.7,N
1662618195.3,286046999.6,N
1662618215.2,286046999.1,N
1662618235.0,286046999.2,N
1662618235.9,286046999.2,N
1662618255.8,286046998.5,N
1662618275.6,286046998.8,N
1662618295.4,286046999.4,N
1662618315.3,286046999.5,N
1662618335.1,286046999.6,N
1662618355.9,286046996.7,N
1662618375.7,286046997.9,N
1662618395.5,286046995.7,Y
1662618415.4,286046997.5,P
1662618435.2,286046999.6,N
1662618455.1,286046999.2,N
1662618456.0,286046999.2,N
1662618475.8,286046999.0,N
1662618495.6,286046998.3,N
1662618515.5,286046998.4,N
1662618535.3,286046998.6,N
1662618555.2,286046998.1,Y
1662618575.9,286047000.4,P
1662618595.7,286047000.3,N
1662618615.6,286047001.1,N
1662618635.4,286046998.5,N
1662618655.2,286046999.2,N
1662618675.1,286046997.1,Y
1662618676.0,286046997.1,P
1662618695.8,286046999.2,N
1662618715.7,286046996.5,P
1662618735.5,286046999.0,N
1662618755.3,286046998.8,N
1662618775.2,286047001.1,N
1662618795.0,286047000.9,N
1662618795.9,286047000.9,N
1662618815.8,286047000.9,N
1662618835.6,286047001.9,N
1662618855.4,286047002.5,N
1662618875.3,286046999.8,N
1662618895.1,286046999.7,N
1662618915.8,286047001.0,N
1662618935.7,286047001.1,N
1662618955.5,286047000.9,N
1662618975.4,286047000.5,N
1662618995.2,286047000.0,N
1662619015.0,286046998.2,N
1662619015.9,286046998.2,N
1662619035.8,286046998.1,N
1662619055.6,286047000.5,N
1662619075.5,286047002.4,N
1662619095.3,286047004.4,N
1662619115.1,286047003.4,N
1662619135.9,286047003.4,N
1662619155.7,286047005.6,N
1662619175.6,286047000.2,N
1662619195.4,286047000.8,N
1662619215.2,286047000.0,N
1662619235.1,286047000.1,N
1662619236.0,286047000.1,N
1662619255.8,286047000.0,N
1662619275.6,286047002.6,N
1662619295.5,286047000.5,N
1662619315.3,286047001.6,N
1662619335.2,286047002.2,N
1662619355.9,286047000.0,N
1662619375.7,286046999.9,N
1662619395.6,286047002.8,N
1662619415.4,286047002.0,N
1662619435.3,286047002.1,N
1662619455.1,286047001.5,N
1662619456.0,286047001.5,N
1662619475.8,286047004.4,N
1662619495.7,286047004.2,N
1662619515.5,286047002.1,N
1662619535.4,286047002.8,N
1662619555.2,286047000.2,N
1662619575.0,286047001.1,N
1662619575.9,286047001.1,N
1662619595.8,286046998.2,N
1662619615.6,286047001.0,N
1662619635.4,286047000.9,N
1662619655.3,286047000.2,N
1662619675.1,286046999.8,N
1662619695.9,286047000.7,N
1662619715.7,286047000.3,N
1662619735.5,286047000.3,N
1662619755.4,286047002.8,N
1662619775.2,286047002.3,N
1662619795.1,286047001.7,N
1662619796.0,286047001.7,N
1662619815.8,286047003.9,N
1662619835.7,286047004.2,Y
1662619855.5,286047002.5,P
1662619875.3,286047001.9,P
1662619895.2,286047002.3,P
1662619915.9,286047002.5,Y
1662619935.8,286047000.8,P
1662619955.6,286046998.3,N
1662619975.4,286046998.2,N
1662619995.3,286046997.2,N
1662620015.1,286046997.2,N
1662620035.9,286046997.4,N
1662620055.7,286046996.8,N
1662620075.5,286046996.7,N
1662620095.4,286046996.9,N
1662620115.2,286046998.3,N
1662620135.1,286046998.8,N
1662620136.0,286046998.8,N
1662620155.8,286046998.6,N
1662620175.7,286046998.4,N
1662620195.5,286047000.4,N
1662620215.3,286047000.5,N
1662620235.2,286046998.5,N
1662620285.9,286046998.1,E
1662620295.9,286047002.8,N
1662620315.7,286047004.4,P
1662620335.5,286047004.3,P
1662620355.4,286047004.3,Y
1662620375.2,286047001.2,P
1662620395.0,286047001.1,N
1662620395.9,286047001.1,N
